Volver al catálogo

ONEWEB-0696

ActivoComunicacionesPO
NORAD 56723·PAYLOAD·🇬🇧 United Kingdom

Lanzado May 20, 2023 desde Vandenberg Space Force Base

Loading…

Próximos Pases (próximas 24 horas)

TLE

ActualizadoSource: CelesTrak SupGP

Época: Sep 14, 2026, 20:27 UTC

1 56723C 23068P   26257.85227269  .00002112  00000+0  56156-2 0  2572
2 56723  87.8984 241.3411 0002360  76.3458 321.7287 13.15549317    19

Sigue ONEWEB-0696 en tiempo real con AllMySat

Download on the App Store